DLH453N KLAX-EDDM

Flight info

Callsign DLH453N
Flight time N/A
Altitude 35000
Route DOTSS2 CLEEE DCT PKE DCT DRK DCT INW DCT LAA DCT KD54A DCT KP66G DCT KG75K DCT BAE DCT ODAXY/N0465F370 DCT YBG DCT YBC Q910 TABRU DCT KODIK/M081F370 DCT 55N050W 5630N04000W 5630N03000W 56N020W DCT PIKIL/N0464F370 DCT SOVED DCT KUGUR DCT BELOX/N0467F390 L603 DOLAS DCT NAVPI DCT OTMEC DCT DODEN DCT TABUM DCT BOMBI T104 HAREM/N0461F350 T104 ELMOX/N0418F270 T104 ROKIL ROKIL1A
Aircraft A346/H-SDE2E3FGHIJ3J4J5M1RWXY/LB1D1

Departure

Time N/A
Airport Los Angeles International Airport (KLAX)

Arrival

Time 2026-05-06 12:38
Airport Munich Airport (EDDM)
Time Latitude Longitude Altitude Speed Heading
2026-05-06 12:15 49.64191 9.38152 33933 ft 470 kts 142°
2026-05-06 12:15 49.61829 9.41652 33230 ft 471 kts 139°
2026-05-06 12:15 49.59584 9.45351 32545 ft 472 kts 136°
2026-05-06 12:16 49.57423 9.49150 31876 ft 470 kts 136°
2026-05-06 12:16 49.55271 9.52930 31264 ft 467 kts 136°
2026-05-06 12:16 49.53130 9.56679 30698 ft 464 kts 136°
2026-05-06 12:16 49.51007 9.60393 30111 ft 460 kts 135°
2026-05-06 12:17 49.48896 9.64079 29420 ft 458 kts 135°
2026-05-06 12:17 49.46792 9.67753 28704 ft 456 kts 135°
2026-05-06 12:17 49.44696 9.71408 28006 ft 454 kts 135°
2026-05-06 12:17 49.42605 9.75048 27286 ft 453 kts 135°
2026-05-06 12:18 49.40520 9.78674 26682 ft 450 kts 135°
2026-05-06 12:18 49.38444 9.82279 26269 ft 449 kts 135°
2026-05-06 12:18 49.36382 9.85852 25808 ft 445 kts 135°
2026-05-06 12:18 49.34332 9.89400 25377 ft 442 kts 135°
2026-05-06 12:19 49.32322 9.92863 24938 ft 438 kts 135°
2026-05-06 12:19 49.30300 9.96337 24493 ft 435 kts 135°
2026-05-06 12:19 49.28270 9.99825 24046 ft 431 kts 135°
2026-05-06 12:19 49.26285 10.03235 23587 ft 427 kts 134°
2026-05-06 12:20 49.24313 10.06618 23109 ft 424 kts 134°
2026-05-06 12:20 49.22384 10.09926 22619 ft 419 kts 134°
2026-05-06 12:20 49.20448 10.13240 22169 ft 414 kts 134°
2026-05-06 12:20 49.18535 10.16513 21731 ft 410 kts 135°
2026-05-06 12:21 49.16643 10.19749 21304 ft 406 kts 135°
2026-05-06 12:21 49.14765 10.22960 20857 ft 402 kts 135°
2026-05-06 12:21 49.12886 10.26098 20433 ft 397 kts 136°
2026-05-06 12:21 49.10992 10.29142 20024 ft 394 kts 137°
2026-05-06 12:22 49.09102 10.32157 19590 ft 391 kts 137°
2026-05-06 12:22 49.07230 10.35149 19143 ft 389 kts 137°
2026-05-06 12:22 49.05365 10.38134 18727 ft 387 kts 137°
2026-05-06 12:22 49.03513 10.41103 18340 ft 387 kts 137°
2026-05-06 12:23 49.01658 10.44073 17870 ft 385 kts 137°
2026-05-06 12:23 48.99819 10.47018 17406 ft 383 kts 137°
2026-05-06 12:23 48.97985 10.49944 16969 ft 380 kts 137°
2026-05-06 12:23 48.96161 10.52851 16552 ft 378 kts 137°
2026-05-06 12:24 48.94370 10.55702 16121 ft 376 kts 137°
2026-05-06 12:24 48.92569 10.58567 15684 ft 374 kts 137°
2026-05-06 12:24 48.90779 10.61424 15265 ft 374 kts 138°
2026-05-06 12:24 48.88930 10.64345 15000 ft 387 kts 138°
2026-05-06 12:25 48.87057 10.67307 14760 ft 388 kts 138°
2026-05-06 12:25 48.85201 10.70247 14124 ft 385 kts 138°
2026-05-06 12:25 48.83345 10.73184 13333 ft 382 kts 138°
2026-05-06 12:25 48.81519 10.76073 12875 ft 370 kts 138°
2026-05-06 12:26 48.79754 10.78845 12502 ft 362 kts 138°
2026-05-06 12:26 48.77989 10.81603 12133 ft 369 kts 138°
2026-05-06 12:26 48.76191 10.84408 11756 ft 366 kts 138°
2026-05-06 12:26 48.74419 10.87176 11343 ft 364 kts 138°
2026-05-06 12:27 48.72661 10.89925 10942 ft 361 kts 138°
2026-05-06 12:27 48.70926 10.92641 10497 ft 355 kts 138°
2026-05-06 12:27 48.67724 10.97662 10013 ft 331 kts 138°
2026-05-06 12:28 48.66158 11.00119 9975 ft 315 kts 139°
2026-05-06 12:28 48.64671 11.02446 9946 ft 300 kts 139°
2026-05-06 12:28 48.63251 11.04665 9918 ft 286 kts 139°
2026-05-06 12:28 48.61897 11.06777 9860 ft 274 kts 139°
2026-05-06 12:29 48.60571 11.08836 9590 ft 274 kts 139°
2026-05-06 12:29 48.59236 11.10894 9215 ft 273 kts 139°
2026-05-06 12:29 48.57914 11.12934 8886 ft 270 kts 139°
2026-05-06 12:29 48.56607 11.14955 8593 ft 268 kts 138°
2026-05-06 12:30 48.55310 11.16962 8309 ft 266 kts 138°
2026-05-06 12:30 48.54020 11.18959 8027 ft 264 kts 137°
2026-05-06 12:30 48.52740 11.20941 7716 ft 262 kts 137°
2026-05-06 12:30 48.51477 11.22898 7423 ft 258 kts 137°
2026-05-06 12:31 48.50228 11.24833 7152 ft 256 kts 136°
2026-05-06 12:31 48.48985 11.26754 6890 ft 255 kts 136°
2026-05-06 12:31 48.47754 11.28658 6615 ft 252 kts 136°
2026-05-06 12:31 48.46532 11.30547 6343 ft 249 kts 136°
2026-05-06 12:32 48.45328 11.32406 6081 ft 247 kts 136°
2026-05-06 12:32 48.44131 11.34250 5822 ft 245 kts 135°
2026-05-06 12:32 48.42939 11.36087 5556 ft 245 kts 135°
2026-05-06 12:32 48.41744 11.37931 5303 ft 245 kts 135°
2026-05-06 12:33 48.40548 11.39770 5030 ft 246 kts 134°
2026-05-06 12:33 48.39349 11.41614 4764 ft 246 kts 134°
2026-05-06 12:33 48.38154 11.43447 4482 ft 244 kts 134°
2026-05-06 12:33 48.36973 11.45260 4230 ft 241 kts 134°
2026-05-06 12:34 48.35787 11.47084 4021 ft 245 kts 134°
2026-05-06 12:34 48.34717 11.48981 3995 ft 232 kts 116°
2026-05-06 12:34 48.34332 11.51234 3994 ft 216 kts 92°
2026-05-06 12:34 48.34402 11.53432 3995 ft 208 kts 83°
2026-05-06 12:35 48.34626 11.55575 3989 ft 206 kts 82°
2026-05-06 12:35 48.34839 11.57703 3978 ft 202 kts 83°
2026-05-06 12:35 48.35010 11.59762 3760 ft 195 kts 84°
2026-05-06 12:35 48.35159 11.61778 3494 ft 192 kts 84°
2026-05-06 12:36 48.35300 11.63735 3222 ft 184 kts 83°
2026-05-06 12:36 48.35433 11.65565 2968 ft 173 kts 83°
2026-05-06 12:36 48.35563 11.67322 2725 ft 159 kts 82°
2026-05-06 12:36 48.35684 11.68924 2531 ft 152 kts 83°
2026-05-06 12:37 48.35803 11.70501 2345 ft 151 kts 83°
2026-05-06 12:37 48.35920 11.72070 2140 ft 151 kts 81°
2026-05-06 12:37 48.36040 11.73637 1934 ft 151 kts 81°
2026-05-06 12:37 48.36157 11.75209 1744 ft 151 kts 81°
2026-05-06 12:38 48.36273 11.76762 1520 ft 151 kts 81°
2026-05-06 12:38 48.36383 11.78124 1489 ft 97 kts 82°
2026-05-06 12:38 48.36447 11.78971 1484 ft 64 kts 84°
2026-05-06 12:38 48.36487 11.79510 1494 ft 47 kts 83°
2026-05-06 12:39 48.36511 11.79863 1482 ft 27 kts 89°
2026-05-06 12:39 48.36473 11.80113 1486 ft 22 kts 112°
2026-05-06 12:39 48.36431 11.80262 1484 ft 7 kts 113°
2026-05-06 12:39 48.36418 11.80310 1481 ft 4 kts 114°
2026-05-06 12:40 48.36417 11.80312 1481 ft 0 kts 114°
2026-05-06 12:40 48.36417 11.80313 1481 ft 0 kts 114°
2026-05-06 12:41 48.36411 11.80331 1480 ft 3 kts 114°
2026-05-06 12:41 48.36398 11.80378 1491 ft 6 kts 114°
2026-05-06 12:41 48.36375 11.80456 1481 ft 10 kts 114°
2026-05-06 12:41 48.36341 11.80549 1480 ft 7 kts 142°
2026-05-06 12:42 48.36306 11.80534 1486 ft 8 kts 242°
2026-05-06 12:42 48.36289 11.80440 1488 ft 11 kts 261°
2026-05-06 12:42 48.36277 11.80312 1483 ft 14 kts 262°
2026-05-06 12:42 48.36263 11.80148 1486 ft 17 kts 263°
2026-05-06 12:43 48.36249 11.79951 1480 ft 20 kts 264°
2026-05-06 12:43 48.36234 11.79728 1481 ft 20 kts 264°
2026-05-06 12:43 48.36225 11.79598 1488 ft 8 kts 264°
2026-05-06 12:43 48.36219 11.79534 1483 ft 7 kts 253°
2026-05-06 12:44 48.36174 11.79486 1477 ft 10 kts 195°
2026-05-06 12:44 48.36095 11.79482 1491 ft 13 kts 175°
2026-05-06 12:44 48.36000 11.79497 1480 ft 14 kts 174°
2026-05-06 12:44 48.35916 11.79495 1482 ft 11 kts 208°
2026-05-06 12:45 48.35862 11.79430 1486 ft 9 kts 217°
2026-05-06 12:45 48.35804 11.79402 1490 ft 10 kts 183°
2026-05-06 12:45 48.35615 11.79424 1490 ft 17 kts 174°
2026-05-06 12:46 48.35486 11.79446 1482 ft 20 kts 172°
2026-05-06 12:46 48.35366 11.79472 1491 ft 6 kts 172°
2026-05-06 12:46 48.35343 11.79477 1482 ft 4 kts 172°
2026-05-06 12:46 48.35301 11.79486 1481 ft 8 kts 172°
2026-05-06 12:47 48.35252 11.79498 1485 ft 5 kts 161°
2026-05-06 12:47 48.35230 11.79535 1483 ft 5 kts 102°
2026-05-06 12:47 48.35233 11.79609 1489 ft 8 kts 83°
2026-05-06 12:47 48.35238 11.79672 1484 ft 3 kts 83°
2026-05-06 12:48 48.35241 11.79706 1483 ft 2 kts 83°
2026-05-06 12:48 48.35242 11.79731 1482 ft 2 kts 84°
2026-05-06 12:48 48.35244 11.79755 1483 ft 1 kts 84°
2026-05-06 12:48 48.35245 11.79770 1489 ft 0 kts 83°